Location: Newark
(35.8833°N, 14.5000°E)
Time: 20:41:00
(UTC+00:00)

A-11 Canister half - Visible Passes

Search period start: 22 November 2019 00:00
Search period end: 02 December 2019 00:00
Orbit: 1514 x 1685 km, 47.2° (Epoch: 21 November)

Date Brightness Start Highest point End Pass type
(mag) Time Alt. Az. Time Alt. Az. Time Alt. Az.
22 Nov 9.5 16:55:46 10° W 17:05:38 57° NNW 17:13:39 18° NE visible
22 Nov 9.7 19:02:54 10° WNW 19:11:50 43° N 19:11:50 43° N visible
22 Nov 11.2 21:08:56 10° NW 21:10:02 14° NW 21:10:02 14° NW visible
23 Nov 9.5 16:32:44 10° WSW 16:42:36 59° NNW 16:51:56 13° NE visible
23 Nov 9.6 18:39:52 10° WNW 18:49:27 44° N 18:50:08 43° NNE visible
23 Nov 10.9 20:45:58 10° NW 20:48:19 19° NW 20:48:19 19° NW visible
24 Nov 9.5 16:09:43 10° WSW 16:19:35 61° NNW 16:29:41 10° NE visible
24 Nov 9.6 18:16:49 10° WNW 18:26:22 44° N 18:28:25 40° NNE visible
24 Nov 10.6 20:22:59 10° NW 20:26:37 25° NW 20:26:37 25° NW visible
25 Nov 9.7 17:53:45 10° WNW 18:03:18 44° N 18:06:44 34° NE visible
25 Nov 10.3 20:00:01 10° NW 20:04:56 32° NW 20:04:56 32° NW visible
26 Nov 9.7 17:30:42 10° WNW 17:40:14 44° N 17:45:02 28° NE visible
26 Nov 10.0 19:37:01 10° NW 19:43:14 40° NW 19:43:14 40° NW visible
27 Nov 9.7 17:07:38 10° WNW 17:17:09 44° N 17:23:23 22° NE visible
27 Nov 9.6 19:14:02 10° WNW 19:21:35 48° NNW 19:21:35 48° NNW visible
27 Nov 11.3 21:19:25 10° WNW 21:19:46 11° WNW 21:19:46 11° WNW visible
28 Nov 9.7 16:44:35 10° WNW 16:54:05 44° N 17:01:45 17° ENE visible
28 Nov 9.4 18:51:04 10° WNW 18:59:56 53° N 18:59:56 53° N visible
28 Nov 11.0 20:56:26 10° WNW 20:58:08 17° WNW 20:58:08 17° WNW visible
29 Nov 9.7 16:21:32 10° WNW 16:31:02 45° N 16:40:08 12° ENE visible
29 Nov 9.3 18:28:04 10° WNW 18:37:59 54° NNE 18:38:20 53° NNE visible
29 Nov 10.7 20:33:27 10° WNW 20:36:33 23° WNW 20:36:33 23° WNW visible
30 Nov 9.7 15:58:28 10° WNW 16:07:58 45° N 16:17:37 10° ENE visible
30 Nov 9.3 18:05:04 10° WNW 18:14:57 52° NNE 18:16:47 47° NE visible
30 Nov 10.4 20:10:28 10° WNW 20:14:59 31° WNW 20:14:59 31° WNW visible
01 Dec 9.4 17:42:05 10° WNW 17:51:54 51° NNE 17:55:16 39° ENE visible
01 Dec 9.9 19:47:29 10° WNW 19:53:30 42° WNW 19:53:30 42° WNW visible
